Regional Weather Roundup
Issued by NWS

Home | Current Version | Previous Version | Text Only | Print | Product List | Glossary Off
Versions: 1 2 3 4 5 6 7 8 9 10 11 12 13 14 15 16 17 18 19 20 21 22 23 24 25 26 27 28 29 30 31 32 33 34 35 36 37 38 39 40 41 42 43 44 45 46 47 48 49 50

000
ASUS43 KLSX 300707
RWRMO

WEATHER SUMMARY FOR MISSOURI
NATIONAL WEATHER SERVICE SPRINGFIELD MO
200 AM CDT SAT APR 30 2016

NOTE: "FAIR" INDICATES FEW OR NO CLOUDS BELOW 12,000 FEET WITH NO
       SIGNIFICANT WEATHER AND/OR OBSTRUCTIONS TO VISIBILITY.
       CURRENT SKY AND/OR WEATHER CONDITIONS ARE NOT AVAILABLE FOR
       CHILLICOTHE AND FARMINGTON.

MOZ001>031-035>038-043-044-053-054-300800-
...NORTHERN AND WESTERN MISSOURI...

CITY           SKY/WX    TMP DP  RH WIND       PRES   REMARKS
KANSAS CTY INT CLOUDY    53  50  89 E10G20    29.73S FOG
KANSAS C DTWN  CLOUDY    55  53  93 E10       29.71F FOG
LEE`S SUMMIT   CLOUDY    56  55  97 E6        29.72S
ST JOSEPH      CLOUDY    51  48  89 E16G24    29.74F
CHILLICOTHE      N/A     52  50  93 E16G26    29.75F
KIRKSVILLE     LGT RAIN  49  46  90 E15G22    29.88F

$$
MOZ066>068-077>081-088>096-101>105-300800-
...SOUTHWEST MISSOURI...

CITY           SKY/WX    TMP DP  RH WIND       PRES   REMARKS
SPRINGFIELD    LGT RAIN  61  59  93 SE14      29.73F
JOPLIN         CLOUDY    61  59  93 E13       29.66F

$$
MOZ032>034-039>042-045>050-055>058-069>072-300800-
...CENTRAL MISSOURI...

CITY           SKY/WX    TMP DP  RH WIND       PRES   REMARKS
COLUMBIA       RAIN      58  56  93 SE12      29.83S
JEFFERSON CITY LGT RAIN  58  57  97 SE13      29.84F FOG
ROLLA          LGT RAIN  57  55  93 E14       29.84F
SEDALIA        LGT RAIN  58  56  93 SE22      29.76F
WHITEMAN AFB   LGT RAIN  57  57 100 E16G29    29.67F
WARRENSBURG    CLOUDY    55  55 100 E21G26    29.69R
OSAGE BEACH    CLOUDY    57  48  72 E9        29.82F

$$
MOZ051-052-059>065-300800-
...EAST CENTRAL MISSOURI...

CITY           SKY/WX    TMP DP  RH WIND       PRES   REMARKS
ST LOUIS INTL  LGT RAIN  59  55  88 E10       29.91F FOG
SPIRIT OF STL  LGT RAIN  57  57 100 E3        29.89S FOG
ST CHARLES     LGT RAIN  58  57  97 SE16      29.89F

$$
MOZ072>076-082>087-097>100-106>115-300800-
...SOUTH CENTRAL AND SOUTHEAST MISSOURI...

CITY           SKY/WX    TMP DP  RH WIND       PRES   REMARKS
CAPE GIRARDEAU CLOUDY    61  57  87 E8        29.87F
FARMINGTON     CLOUDY    59  55  87 SE6       29.89F
POPLAR BLUFF   RAIN      60  59  96 E5        29.87F FOG
WEST PLAINS    RAIN      60  58  92 SE10      29.82F FOG

$$



USA.gov is the U.S. government's official web portal to all federal, state and local government web resources and services.